Location: New York
(40.7140°N, 74.0060°W)
Time: 14:49:38
(UTC-05:00)

ISS - Visible Passes

Search period start: 21 January 2017 00:00
Search period end: 31 January 2017 00:00
Orbit: 399 x 410 km, 51.6° (Epoch: 22 January)

Date Brightness Start Highest point End Pass type
(mag) Time Alt. Az. Time Alt. Az. Time Alt. Az.
21 Jan -0.8 05:52:18 10° SW 05:52:18 10° SW 05:52:25 10° SSW visible
27 Jan -2.3 18:51:07 10° SSW 18:53:29 35° S 18:53:29 35° S visible
28 Jan -1.8 17:59:29 10° S 18:02:05 22° SE 18:03:45 15° E visible
28 Jan -0.5 19:35:16 10° WSW 19:36:26 19° W 19:36:26 19° W visible
29 Jan -3.3 18:42:46 10° WSW 18:46:02 76° NW 18:46:35 57° NNE visible
30 Jan -3.1 17:50:33 10° SW 17:53:45 55° SE 17:56:39 12° ENE visible
30 Jan -0.8 19:27:42 10° W 19:29:19 20° NW 19:29:19 20° NW visible
